Tracking 28052 objects as of 24-Sep-2023
HD Live streaming from Space Station
objects crossing your sky now

STARLINK-30186

Track STARLINK-30186 now!
10-day predictions
STARLINK-30186 is classified as:


NORAD ID: 57470
Int'l Code: 2023-107P
Perigee: 565.2 km
Apogee: 567.2 km
Inclination: 43.0 °
Period: 95.8 minutes
Semi major axis: 6937 km
RCS: Unknown
Launch date: July 28, 2023
Source: (TBD)
Launch site: AIR FORCE EASTERN TEST RANGE (AFETR)
Your satellite tracking list
Your tracking list is empty




NASA's NSSDC Master Catalog

Two Line Element Set (TLE):
1 57470U 23107P   23267.09452611 -.00000694  00000-0 -36264-4 0  9990
2 57470  43.0012 176.0852 0001485 266.8778  93.1895 15.02540673  9878
Source of the keplerian elements: AFSPC